Station APAM2 - 8575512 - Annapolis, MD Image indicating link to RSS feed of recent meteorological observations for station APAM2


Conditions at APAM2 as of
(12:18 pm EDT)
1618 GMT on 09/04/2026:
     

Click on the graph icon in the table below to see a time series plot of the last five days of that observation.

5-day plot - Wind Direction Wind Direction (WDIR): NW ( 310 deg true )
5-day plot - Wind Speed Wind Speed (WSPD): 8.9 kts
5-day plot - Wind Gust Wind Gust (GST): 9.9 kts
5-day plot - Atmospheric Pressure Atmospheric Pressure (PRES):29.92 in
5-day plot - Water Temperature Water Temperature (WTMP): 83.1 °F
5-day plot -  Wind Speed, Wind Gust and Atmospheric Pressure Combined plot of Wind Speed, Gust, and Air Pressure
NOS Water Level Observation Network Water Level
Previous observations
TIME
(EDT)
5-day plot - Wind Direction
WDIR
 
5-day plot - Wind Speed
WSPD
kts
5-day plot - Wind Gust
GST
kts
5-day plot - Wave Height
WVHT
ft
5-day plot - Dominant Wave Period
DPD
sec
5-day plot - Average Wave Period
APD
sec
5-day plot - Mean Wave Direction
MWD
 
5-day plot - Atmospheric Pressure
PRES
in
5-day plot - Pressure Tendency
PTDY
in
5-day plot - Air Temperature
ATMP
°F
5-day plot - Water Temperature
WTMP
°F
5-day plot - Dew Point
DEWP
°F
5-day plot - Salinity
SAL
psu
5-day plot - Visibility
VIS
nmi
5-day plot - Tide (above MLLW)
TIDE
ft
2026-09-04 12:12 pmWNW 7.0 8.9----29.93-- 82.9----
2026-09-04 12:06 pmWNW 7.0 11.1----29.93-- 82.9----
2026-09-04 12:00 pmWNW 8.9 12.0----29.93+0.00 84.4 82.9----
2026-09-04 11:54 amWNW 8.9 11.1----29.93- 83.7 82.8----
2026-09-04 11:48 am NW 7.0 9.9----29.93-- 82.9----
2026-09-04 11:42 am NW 6.0 9.9----29.93-- 82.9----
2026-09-04 11:36 amWNW 8.0 9.9----29.93-- 82.8----
2026-09-04 11:30 amWNW 8.9 11.1----29.93- 82.9 82.6----
2026-09-04 11:24 amWNW 8.9 11.1----29.93- 83.1 82.8----
2026-09-04 11:18 amWNW 8.0 9.9----29.93-- 82.9----
2026-09-04 11:12 amWNW 7.0 9.9----29.93-- 82.9----
2026-09-04 11:06 amWNW 7.0 8.9----29.93-- 82.9----
2026-09-04 11:00 amWNW 7.0 12.0----29.94+0.00 84.0 82.9----
2026-09-04 10:54 amWNW 7.0 9.9----29.94- 83.5 83.1----
2026-09-04 10:48 am NW 5.1 8.0----29.94- 82.9 82.9----
2026-09-04 10:42 amWNW 5.1 8.9----29.94- 82.9 82.8----
2026-09-04 10:36 amWNW 5.1 7.0----29.94- 82.8 82.8----
2026-09-04 10:30 amWNW 6.0 8.9----29.94- 82.6 82.8----
2026-09-04 10:24 am NW 5.1 8.0----29.94- 82.0 82.8----
2026-09-04 10:18 amWNW 5.1 7.0----29.93-- 82.6----
2026-09-04 10:12 am W 6.0 8.0----29.94-- 82.6----
2026-09-04 10:06 amWNW 5.1 7.0----29.94-- 82.6----
2026-09-04 10:00 amWNW 5.1 7.0----29.94+0.00 81.0 82.6----
2026-09-04 09:54 amWNW 7.0 8.9----29.94- 80.6 82.6----
2026-09-04 09:48 am NW 8.0 9.9----29.94- 80.6 82.6----
2026-09-04 09:42 amWNW 6.0 7.0----29.93- 80.6 82.4----
2026-09-04 09:36 amWNW 6.0 8.9----29.93- 80.4 82.4----
2026-09-04 09:30 am W 5.1 8.0----29.94- 81.3 82.2----
2026-09-04 09:24 am W 5.1 8.0----29.93- 81.1 82.2----
2026-09-04 09:18 am W 2.9 6.0----29.93-- 82.2----
2026-09-04 09:12 amWSW 2.9 5.1----29.93-- 82.2----
2026-09-04 09:06 amWSW 1.9 5.1----29.93-- 82.0----
2026-09-04 09:00 am W 2.9 7.0----29.93+0.01 80.1 82.0----
2026-09-04 08:54 am W 4.1 6.0----29.93- 80.1 82.0----
2026-09-04 08:48 am W 2.9 6.0----29.93- 79.5 82.0----
2026-09-04 08:42 am W 2.9 7.0----29.93- 79.2 82.0----
2026-09-04 08:36 am W 4.1 7.0----29.94- 79.0 82.0----
2026-09-04 08:30 am W 4.1 7.0----29.94- 78.6 82.0----
2026-09-04 08:24 am W 4.1 6.0----29.94- 78.3 81.9----
2026-09-04 08:18 amWSW 1.9 5.1----29.94-- 81.9----
2026-09-04 08:12 amWSW 1.0 6.0----29.94-- 81.9----
2026-09-04 08:06 am SW 1.9 5.1----29.94-- 81.9----
2026-09-04 08:00 amWSW 1.9 4.1----29.93+0.04 77.7 81.9----
2026-09-04 07:54 amWSW 1.9 4.1----29.93- 77.4 81.9----
2026-09-04 07:48 amWSW 1.9 5.1----29.93-- 81.9----
2026-09-04 07:42 am SW 2.9 6.0----29.93-- 81.9----
2026-09-04 07:36 am SW 2.9 5.1----29.93-- 81.9----
2026-09-04 07:30 amWSW 2.9 6.0----29.94- 75.6 82.0----
2026-09-04 07:24 am SW 2.9 6.0----29.93- 75.4 82.0----
2026-09-04 07:18 am SW 2.9 6.0----29.93-- 82.4----
2026-09-04 07:12 am SW 2.9 5.1----29.93-- 82.4----
2026-09-04 07:06 amWSW 1.9 4.1----29.93-- 82.4----
2026-09-04 07:00 amWSW 1.9 5.1----29.93+0.01 74.3 82.4----
2026-09-04 06:54 amWSW 1.9 6.0----29.93- 74.3 82.4----
2026-09-04 06:48 amWSW 1.9 2.9----29.92-- 82.4----
2026-09-04 06:42 am SW 1.0 5.1----29.92-- 82.4----
2026-09-04 06:36 am W 2.9 5.1----29.92-- 82.4----
2026-09-04 06:30 am W 1.9 4.1----29.92- 74.5 82.4----
2026-09-04 06:24 am W 1.9 5.1----29.92- 74.7 82.4----
2026-09-04 06:18 am W 4.1 7.0----29.92-- 82.4----
2026-09-04 06:12 am W 2.9 6.0----29.93-- 82.4----
2026-09-04 06:06 am W 5.1 7.0----29.93-- 82.6----
2026-09-04 06:00 am W 1.9 4.1----29.92+0.00 74.8 82.6----
2026-09-04 05:54 amWSW 1.0 4.1----29.91- 74.7 82.6----
2026-09-04 05:48 am W 1.9 4.1----29.91- 74.7 82.6----
2026-09-04 05:42 am W 1.9 2.9----29.91- 74.7 82.6----
2026-09-04 05:36 am- 0.0 1.9----29.90- 74.5 82.6----
2026-09-04 05:30 am W 1.9 1.9----29.91- 74.7 82.6----
2026-09-04 05:24 amWSW 1.9 1.9----29.91- 74.7 82.6----
2026-09-04 05:18 am W 1.9 2.9----29.91-- 82.6----
2026-09-04 05:12 amSSW 1.9 5.1----29.90-- 82.6----
2026-09-04 05:06 amSSW 1.9 4.1----29.90-- 82.6----
2026-09-04 05:00 am SW 1.9 6.0----29.90+0.00 74.5 82.6----
2026-09-04 04:54 am SW 4.1 5.1----29.90- 74.5 82.6----
2026-09-04 04:48 am SW 2.9 6.0----29.90- 74.5 82.6----
2026-09-04 04:42 amSSW 2.9 5.1----29.90- 74.5 82.6----
2026-09-04 04:36 am W 1.0 4.1----29.91- 74.3 82.6----
2026-09-04 04:30 amSSW 1.0 2.9----29.91- 74.5 82.6----
2026-09-04 04:24 amSSW 1.9 2.9----29.91- 74.5 82.6----
2026-09-04 04:18 am W 2.9 4.1----29.91- 74.5 82.6----
2026-09-04 04:12 am SW 1.9 1.9----29.91- 74.5 82.6----
2026-09-04 04:06 am- 0.0 2.9----29.91- 74.8 82.4----
2026-09-04 04:00 am S 1.0 2.9----29.92-0.02 74.7 82.6----
2026-09-04 03:54 am- 0.0 1.9----29.92- 75.2 82.8----
2026-09-04 03:48 amSSW 1.9 2.9----29.92- 74.7 82.8----
2026-09-04 03:42 am SW 1.0 2.9----29.92- 74.7 82.8----
2026-09-04 03:36 amWSW 1.0 1.9----29.92- 74.8 82.8----
2026-09-04 03:30 amSSW 1.9 2.9----29.92- 75.0 82.8----
2026-09-04 03:24 am- 0.0 1.9----29.92- 74.8 82.8----
2026-09-04 03:18 am SE 1.0 1.9----29.92-- 82.6----
2026-09-04 03:12 am SE 1.0 4.1----29.92-- 82.6----
2026-09-04 03:06 am SE 1.9 5.1----29.92-- 82.6----
2026-09-04 03:00 amSSE 2.9 5.1----29.92+0.01 74.8 82.6----
2026-09-04 02:54 amSSE 2.9 4.1----29.91- 74.8 82.6----
2026-09-04 02:48 am SE 2.9 4.1----29.92- 75.0 82.8----
2026-09-04 02:42 am SE 2.9 5.1----29.92- 75.0 82.8----
2026-09-04 02:36 amSSE 1.9 4.1----29.92- 75.2 82.8----
2026-09-04 02:30 am S 2.9 5.1----29.92- 75.2 82.6----
2026-09-04 02:24 amSSW 1.9 5.1----29.92- 74.8 82.6----
2026-09-04 02:18 amWSW 1.0 5.1----29.92-- 82.6----
2026-09-04 02:12 am W 4.1 7.0----29.91-- 82.6----
2026-09-04 02:06 amWSW 1.9 7.0----29.91-- 82.6----
2026-09-04 02:00 am SW 2.9 5.1----29.90-0.01 75.2 82.6----
2026-09-04 01:54 am S 2.9 4.1----29.90- 75.2 82.6----
2026-09-04 01:48 amSSE 1.9 5.1----29.89-- 82.6----
2026-09-04 01:42 amSSE 2.9 5.1----29.88-- 82.6----
2026-09-04 01:36 amESE 1.9 2.9----29.88-- 82.6----
2026-09-04 01:30 am SE 1.9 2.9----29.88- 75.2 82.6----
2026-09-04 01:24 amSSW 1.9 6.0----29.89- 75.2 82.6----
2026-09-04 01:18 am S 6.0 8.0----29.90-- 82.6----
2026-09-04 01:12 am S 7.0 9.9----29.91-- 82.6----
2026-09-04 01:06 am S 5.1 8.9----29.92-- 82.6----
2026-09-04 01:00 amSSW 4.1 7.0----29.94+0.02 75.7 82.6----
2026-09-04 12:54 am S 4.1 6.0----29.95- 76.1 82.6----
2026-09-04 12:48 amSSW 4.1 8.0----29.95-- 82.6----
2026-09-04 12:42 amWSW 4.1 13.0----29.96-- 82.6----
2026-09-04 12:36 amWSW 8.0 21.0----29.98-- 82.6----
2026-09-04 12:30 amWSW 15.0 24.1----29.96- 82.9 82.6----
2026-09-04 12:24 am SW 8.9 15.0----29.94- 84.9 82.6----
2026-09-04 12:18 am SW 2.9 5.1----29.92-- 82.6----
2026-09-04 12:12 amWSW 2.9 7.0----29.92-- 82.6----
2026-09-04 12:06 amWSW 1.9 6.0----29.92-- 82.6----
2026-09-04 12:00 am W 2.9 5.1----29.91-0.02 84.0 82.6----
2026-09-03 11:54 pm W 4.1 8.9----29.89- 84.0 82.6----
2026-09-03 11:48 pmWNW 8.9 12.0----29.90- 84.4 82.6----
2026-09-03 11:42 pm- 0.0 1.9----29.89- 84.4 82.4----
2026-09-03 11:36 pmSSE 1.0 2.9----29.89- 84.4 82.4----
2026-09-03 11:30 pm S 1.9 2.9----29.90- 84.6 82.4----
2026-09-03 11:24 pm- 0.0 2.9----29.90- 84.6 82.4----
2026-09-03 11:18 pmSSE 1.9 2.9----29.91-- 82.4----
2026-09-03 11:12 pm- 0.0 1.9----29.91-- 82.4----
2026-09-03 11:06 pm SW 1.9 4.1----29.91-- 82.4----
2026-09-03 11:00 pm- 0.0 1.9----29.91-0.01 84.7 82.4----
2026-09-03 10:54 pm S 1.9 2.9----29.91- 84.9 82.4----
2026-09-03 10:48 pm S 1.9 4.1----29.91- 84.9 82.6----
2026-09-03 10:42 pmSSW 1.9 4.1----29.92- 85.1 82.6----
2026-09-03 10:36 pmSSW 1.0 2.9----29.92- 85.1 82.6----
2026-09-03 10:30 pmSSW 1.9 4.1----29.92- 85.1 82.6----
2026-09-03 10:24 pmSSW 1.9 4.1----29.91- 85.1 82.6----
2026-09-03 10:18 pm- 0.0 2.9----29.91-- 82.6----
2026-09-03 10:12 pmSSW 1.9 2.9----29.91-- 82.6----
2026-09-03 10:06 pm S 1.0 6.0----29.91-- 82.6----
2026-09-03 10:00 pmSSW 1.9 2.9----29.92+0.01 85.5 82.6----
2026-09-03 09:54 pm SW 1.0 4.1----29.92- 85.5 82.6----
2026-09-03 09:48 pmSSW 1.0 4.1----29.91-- 82.6----
2026-09-03 09:42 pm S 2.9 5.1----29.91-- 82.6----
2026-09-03 09:36 pm S 1.0 5.1----29.91-- 82.6----
2026-09-03 09:30 pm S 2.9 5.1----29.91- 85.6 82.6----
2026-09-03 09:24 pm S 2.9 5.1----29.91- 85.6 82.6----
2026-09-03 09:18 pm S 2.9 5.1----29.91-- 82.6----
2026-09-03 09:12 pm S 1.9 4.1----29.92-- 82.6----
2026-09-03 09:06 pmSSW 2.9 5.1----29.92-- 82.6----
2026-09-03 09:00 pm- 0.0 5.1----29.93+0.03 86.2 82.6----
2026-09-03 08:54 pm S 1.9 5.1----29.93- 86.2 82.6----
2026-09-03 08:48 pm S 2.9 5.1----29.93-- 82.6----
2026-09-03 08:42 pm S 1.0 2.9----29.93-- 82.8----
2026-09-03 08:36 pmSSW 1.0 5.1----29.93-- 82.8----
2026-09-03 08:30 pmSSW 1.9 5.1----29.93- 86.9 82.6----
2026-09-03 08:24 pm- 0.0 4.1----29.93- 87.1 82.6----
2026-09-03 08:18 pmSSW 1.9 5.1----29.93-- 82.6----
2026-09-03 08:12 pm- 0.0 4.1----29.93-- 82.6----
2026-09-03 08:06 pm S 1.9 5.1----29.92-- 82.6----
2026-09-03 08:00 pm S 4.1 5.1----29.92+0.01 87.8 82.6----
2026-09-03 07:54 pm S 2.9 5.1----29.92- 88.0 82.6----
2026-09-03 07:48 pm S 2.9 4.1----29.91-- 82.4----
2026-09-03 07:42 pmSSE 2.9 5.1----29.91-- 82.4----
2026-09-03 07:36 pm SE 1.9 4.1----29.91-- 82.4----
2026-09-03 07:30 pm SE 4.1 4.1----29.91- 88.2 82.4----
2026-09-03 07:24 pmSSE 2.9 5.1----29.91- 88.7 82.4----
2026-09-03 07:18 pmSSE 1.9 5.1----29.91-- 82.4----
2026-09-03 07:12 pmSSE 1.9 6.0----29.91-- 82.4----
2026-09-03 07:06 pm S 1.9 4.1----29.91-- 82.4----
2026-09-03 07:00 pmSSW 4.1 8.0----29.91-0.02 89.8 82.4----
2026-09-03 06:54 pm S 5.1 6.0----29.91- 90.0 82.4----
2026-09-03 06:48 pm S 5.1 8.0----29.91- 90.0 82.4----
2026-09-03 06:42 pm S 2.9 8.0----29.91- 90.3 82.4----
2026-09-03 06:36 pm S 6.0 9.9----29.90- 90.0 82.4----
2026-09-03 06:30 pmSSE 4.1 8.9----29.91- 88.9 82.4----
2026-09-03 06:24 pm SE 2.9 6.0----29.90- 87.3 82.4----
2026-09-03 06:18 pm SE 2.9 6.0----29.90-- 82.6----
2026-09-03 06:12 pmESE 5.1 8.9----29.90-- 82.4----
2026-09-03 06:06 pmESE 4.1 8.9----29.90-- 82.6----
2026-09-03 06:00 pmESE 5.1 8.9----29.90-0.04 86.7 82.8----
2026-09-03 05:54 pmESE 6.0 8.9----29.91- 86.7 82.8----
2026-09-03 05:48 pm SE 5.1 8.9----29.91- 86.5-----
2026-09-03 05:42 pm SE 4.1 7.0----29.91- 88.2-----
2026-09-03 05:36 pm SE 4.1 8.0----29.91- 89.6-----
2026-09-03 05:30 pmSSE 6.0 8.9----29.91- 90.5 83.5----
2026-09-03 05:24 pm S 5.1 8.9----29.91- 91.6 83.5----
2026-09-03 05:18 pmSSE 4.1 9.9----29.91-- 83.5----
2026-09-03 05:12 pmSSE 2.9 9.9----29.91-- 83.5----
2026-09-03 05:06 pm S 6.0 8.9----29.91-- 83.5----
2026-09-03 05:00 pmSSE 5.1 8.9----29.91-0.06 92.3 83.7----
2026-09-03 04:54 pm S 5.1 8.0----29.91- 93.0 83.7----
2026-09-03 04:48 pm S 4.1 8.9----29.91- 93.4 83.5----
2026-09-03 04:42 pm SW 5.1 8.0----29.91- 93.0 83.5----
2026-09-03 04:36 pmSSW 4.1 8.9----29.91- 93.0 83.5----
2026-09-03 04:30 pmSSW 5.1 8.9----29.91- 92.8 83.3----
2026-09-03 04:24 pmSSW 4.1 7.0----29.92- 92.3 83.3----
2026-09-03 04:18 pmNNW 1.9 7.0----29.92-- 83.1----
2026-09-03 04:12 pm W 5.1 8.0----29.92-- 83.1----
2026-09-03 04:06 pmWSW 1.9 7.0----29.93-- 83.1----
2026-09-03 04:00 pmWSW 1.9 5.1----29.93-0.06 91.9 83.1----
2026-09-03 03:54 pmWNW 1.9 5.1----29.93- 90.9 82.9----
2026-09-03 03:48 pm W 5.1 8.9----29.94- 90.1 82.9----
2026-09-03 03:42 pm W 1.9 6.0----29.94- 90.3 82.9----
2026-09-03 03:36 pmWSW 1.0 6.0----29.94- 90.9 82.9----
2026-09-03 03:30 pm W 4.1 7.0----29.94- 90.1 82.9----
2026-09-03 03:24 pm W 4.1 6.0----29.94- 90.3 82.9----
2026-09-03 03:18 pm SW 2.9 9.9----29.95-- 82.8----
2026-09-03 03:12 pm SW 4.1 8.0----29.95-- 82.8----
2026-09-03 03:06 pmWSW 2.9 7.0----29.95-- 82.8----
2026-09-03 03:00 pmWSW 2.9 11.1----29.95-0.10 91.4 82.8----
2026-09-03 02:54 pmWSW 1.9 9.9----29.95- 91.0 82.6----
2026-09-03 02:48 pm W 4.1 8.0----29.95- 90.9 82.6----
2026-09-03 02:42 pmWSW 5.1 8.9----29.96- 90.0 82.6----
2026-09-03 02:36 pm W 5.1 8.9----29.96- 88.9 82.6----
2026-09-03 02:30 pm W 5.1 9.9----29.95- 88.5 82.6----
2026-09-03 02:24 pm SW 5.1 9.9----29.95- 88.9 82.6----
2026-09-03 02:18 pmSSW 4.1 8.0----29.96-- 82.6----
2026-09-03 02:12 pmWSW 4.1 7.0----29.96-- 82.6----
2026-09-03 02:06 pmWSW 1.9 6.0----29.96-- 82.6----
2026-09-03 02:00 pmWSW 1.9 7.0----29.97-0.05 86.4 82.6----
2026-09-03 01:54 pm SW 2.9 7.0----29.97- 85.8 82.6----
2026-09-03 01:48 pm SW 4.1 8.9----29.97-- 82.6----
2026-09-03 01:42 pm SW 4.1 7.0----29.97-- 82.6----
2026-09-03 01:36 pm SE 1.0 6.0----29.97-- 82.6----
2026-09-03 01:30 pmSSW 5.1 8.0----29.97- 84.9 82.4----
2026-09-03 01:24 pmSSW 2.9 6.0----29.97- 84.0 82.6----
2026-09-03 01:18 pmSSW 4.1 8.0----29.98-- 82.4----
2026-09-03 01:12 pmSSW 5.1 9.9----29.98-- 82.4----
2026-09-03 01:06 pmSSW 4.1 11.1----29.98-- 82.4----
2026-09-03 01:00 pmSSW 6.0 9.9----29.99-0.01 82.8 82.4----
2026-09-03 12:54 pm SW 2.9 8.0----29.99- 83.3 82.6----
2026-09-03 12:48 pm S 5.1 8.9----29.98- 82.8 82.6----
2026-09-03 12:42 pm S 5.1 7.0----30.00- 82.8 82.6----
2026-09-03 12:36 pmSSW 5.1 6.0----30.00- 82.8 82.6----
2026-09-03 12:30 pm- 0.0 2.9----30.00- 82.9 82.6----
2026-09-03 12:24 pmSSW 2.9 8.0----30.01- 82.4 82.6----
2026-09-03 12:18 pm SW 1.9 9.9----30.02-- 82.6----
2026-09-03 12:12 pm W 8.0 12.0----30.04-- 82.6----
2026-09-03 12:06 pm W 6.0 13.0----30.05-- 82.6----
2026-09-03 12:00 pm W 4.1 8.0----30.05+0.01 82.0 82.6----
2026-09-03 11:54 amWSW 2.9 8.0----30.04- 82.2 82.6----